Location: Roanoke
(37.2710°N, 79.9420°W)
Time: 18:27:28
(UTC-05:00)

S-56A Canister/Altair - Pass Details

Date: 28 November 2019
Orbit: 632 x 2500 km, 38.9° (Epoch: 14 December)

Event Time Altitude Azimuth Distance (km) Brightness Sun altitude
Rises 17:27:30 0° 278° (W) 5,685 13.1 -5.2°
Reaches altitude 10° 17:31:38 10° 279° (W) 4,440 12.5 -6.0°
Maximum altitude 17:43:10 85° 9° (N) 1,462 8.9 -8.1°
Drops below altitude 10° 17:50:33 10° 98° (E) 2,940 10.0 -9.5°
Enters shadow 17:51:09 - 98° (E) 3,141 10.1 -9.6°
Sets 17:52:47 0° 99° (E) 3,703 - -9.9°
